Theta_e
305 303 303 303 306 308 307 307 306 306 307 307 308 308 308 308 308 310 309 310 311 314 313 311 310 311 311 311 312 311 312 310 309 312 314 314 315 313 315 312 312 313 315 314 314 314 316 315 316 318 317 318 317 319
304 303 303 304 307 308 307 307 306 307 307 308 308 308 308 308 308 309 311 308 307 309 314 311 310 310 309 309 310 312 312 311 308 309 311 311 313 312 314 318 312 313 313 315 314 315 315 313 313 312 313 316 317 316
304 303 303 305 308 308 308 307 307 307 307 307 308 308 308 308 308 310 311 310 309 312 314 313 314 311 309 309 309 313 310 309 309 306 307 309 311 309 314 313 310 307 308 314 312 314 312 313 313 315 316 317 317 316
304 303 304 305 309 308 309 307 307 307 308 308 308 308 308 308 308 309 311 310 310 311 317 316 310 313 309 309 308 309 310 309 307 307 308 309 311 308 310 307 308 305 306 307 309 310 311 312 312 314 316 317 317 317
303 303 303 306 309 308 310 308 307 308 309 309 308 308 308 308 308 310 310 310 309 312 317 317 313 312 310 310 310 310 311 311 311 310 310 310 308 308 309 311 309 309 311 312 312 310 311 311 310 311 312 313 312 312
303 303 304 306 310 309 310 309 309 309 309 309 309 309 308 309 310 312 316 311 309 310 314 319 316 314 313 312 310 311 310 312 312 312 312 310 308 309 310 312 307 310 309 308 309 310 308 309 309 309 310 311 310 310
303 303 304 307 310 309 309 311 310 310 309 310 310 310 310 310 311 315 317 312 309 309 312 319 319 317 311 312 309 312 312 312 313 313 312 311 311 310 311 311 309 310 309 307 307 308 308 307 308 308 308 309 309 308
303 304 304 308 310 310 309 312 312 310 309 309 309 309 309 309 310 313 311 308 308 310 312 318 320 320 315 318 318 308 315 314 313 313 312 313 312 311 314 310 311 310 308 308 307 306 306 306 306 306 307 308 308 308
303 304 304 307 310 310 310 310 312 311 309 309 309 309 310 311 315 314 308 307 309 310 318 318 323 321 317 318 315 313 313 317 313 316 312 311 310 313 314 309 310 311 310 309 307 306 305 304 305 306 305 307 308 307
304 304 305 307 310 311 310 309 312 311 310 309 310 314 319 316 310 308 308 311 312 312 312 316 317 320 319 319 320 317 313 315 315 314 313 313 313 310 309 309 310 310 310 310 309 308 307 306 304 305 305 305 306 306
304 305 305 306 309 311 311 309 312 311 310 313 317 320 314 310 312 313 317 318 318 319 317 316 317 319 318 321 322 319 318 316 318 315 313 313 314 310 309 309 309 310 310 310 309 308 307 307 306 304 305 305 304 304
305 305 305 306 308 310 310 311 313 311 315 316 316 314 314 316 319 322 320 320 322 319 319 319 318 317 319 319 320 321 320 319 317 314 312 316 312 310 309 309 309 308 308 309 309 309 307 307 306 306 304 304 304 304
305 305 306 307 309 313 313 312 311 311 311 314 317 322 323 324 323 319 319 319 319 317 315 316 317 319 318 320 322 322 317 317 314 313 316 312 312 310 309 309 309 307 307 307 308 308 308 307 306 306 306 304 303 304
305 306 307 309 309 313 315 315 311 311 313 320 324 323 324 321 319 320 319 318 317 316 315 315 316 322 322 322 318 318 316 314 313 316 315 311 312 311 311 309 309 309 307 307 306 307 308 306 306 304 304 304 304 304
306 307 312 311 312 313 315 312 312 311 317 323 324 324 321 319 319 320 318 318 317 317 315 315 318 318 316 315 313 313 313 313 314 314 312 312 311 312 311 310 310 309 307 307 306 306 306 306 304 303 303 302 304 304
307 309 315 312 312 308 309 312 311 315 319 322 324 325 321 320 320 320 319 319 318 317 315 315 315 315 314 313 313 313 312 315 313 311 310 310 313 311 309 308 308 308 307 307 305 305 306 305 303 303 303 302 302 303
307 316 309 307 306 309 312 315 316 320 323 324 323 322 322 322 322 321 319 319 316 317 319 315 316 315 313 313 314 311 313 310 309 308 308 310 310 310 309 307 308 308 307 307 305 304 304 304 303 303 303 302 303 302
309 310 308 306 308 311 315 315 320 324 326 324 323 321 322 322 323 320 319 317 317 319 317 317 314 316 315 316 315 311 310 308 308 308 308 309 309 309 307 307 307 307 308 307 305 304 304 303 303 303 302 302 302 302
307 309 312 310 310 316 319 322 320 325 324 322 322 322 322 322 321 320 320 318 315 314 315 315 315 317 314 311 311 310 310 308 308 307 307 308 308 307 306 306 305 306 307 306 305 303 303 302 302 302 302 302 302 301
313 317 319 315 316 320 322 325 324 327 325 324 323 324 323 322 323 322 318 317 318 316 316 316 316 312 311 313 311 311 309 309 310 308 307 306 304 304 305 304 304 305 305 304 303 301 303 302 302 301 301 301 301 301
316 318 317 316 318 319 321 325 326 325 323 323 323 324 327 326 324 321 319 317 316 317 318 316 315 314 311 311 312 311 309 309 310 308 306 305 303 303 303 303 303 303 303 303 304 303 301 302 301 301 301 301 301 301
318 318 320 317 322 326 328 327 327 327 325 325 325 325 326 325 324 321 319 317 317 316 316 316 316 315 315 315 314 313 311 310 310 305 301 302 304 303 303 303 303 303 303 302 302 302 302 301 301 301 301 301 300 300
319 320 322 323 327 326 324 321 325 324 325 326 324 323 324 324 322 320 319 318 318 317 316 315 315 315 315 313 313 311 310 311 309 305 303 303 302 302 302 302 301 301 301 301 301 301 301 300 300 301 301 300 300 300
318 324 326 328 328 327 326 327 325 326 327 325 324 324 324 323 322 320 319 318 318 316 316 316 315 316 312 312 312 312 311 310 307 304 303 303 303 302 301 301 301 301 301 301 301 301 301 301 300 301 300 300 300 299
319 323 321 316 324 326 325 324 325 325 326 325 324 324 325 322 322 320 319 318 317 317 316 314 314 313 313 312 310 309 309 307 305 306 305 303 303 302 301 301 301 300 300 300 300 300 301 300 300 300 300 299 299 299
312 322 323 321 325 327 325 325 325 326 326 325 325 324 323 323 321 320 318 318 318 318 318 317 317 314 311 309 308 307 306 305 306 306 305 303 302 302 302 302 302 300 300 299 299 299 300 300 299 300 299 299 298 299
317 323 325 323 324 324 326 327 326 325 326 326 326 324 323 320 319 320 317 317 318 316 313 310 308 308 307 305 304 303 303 303 303 302 301 301 301 301 301 301 300 300 300 299 299 298 299 299 299 299 299 299 299 298
323 323 325 326 325 326 328 328 328 327 325 325 324 323 319 318 320 317 316 315 313 306 305 304 303 302 302 301 301 301 301 301 301 300 300 300 300 300 300 300 298 297 298 298 298 298 299 299 298 299 299 299 299 298
324 325 324 326 327 328 329 329 327 326 324 324 324 323 322 320 316 314 312 311 306 305 305 304 303 302 301 300 299 298 298 299 301 302 302 302 301 300 300 299 298 298 298 298 296 297 298 298 298 298 298 298 297 297
323 323 326 326 326 327 328 326 327 325 323 323 322 320 318 315 310 310 309 307 307 306 304 303 303 302 301 300 299 297 297 297 298 299 300 300 299 299 299 299 298 298 298 298 298 297 296 297 297 297 297 297 297 297
323 324 325 326 327 327 325 324 323 322 322 322 321 322 319 312 307 306 308 307 305 304 303 303 302 301 300 299 299 298 297 296 297 298 298 298 298 298 298 298 298 298 298 298 298 298 297 297 297 297 297 297 297 297
325 325 326 327 327 325 323 324 325 325 324 323 323 321 318 315 314 308 305 305 305 305 302 303 302 300 298 297 296 295 295 296 296 297 297 297 297 297 297 297 297 297 297 298 298 297 297 297 297 297 297 297 296 296
327 326 327 326 326 327 325 324 325 324 323 323 323 323 320 320 319 310 304 305 305 304 303 302 300 299 298 297 296 295 295 294 294 295 294 294 294 295 296 297 297 297 297 297 297 297 297 297 296 296 296 296 295 295
Wind_Speed
15 19 21 22 22 17 14 13 12 10 7 5 4 3 3 3 3 4 3 1 3 3 5 5 4 6 5 4 3 8 3 2 2 2 3 3 3 1 3 3 9 10 9 9 11 12 14 8 0 4 6 16 8 10
15 18 20 21 21 16 14 12 10 7 5 3 3 2 3 4 5 5 2 2 2 2 4 1 3 4 3 5 3 6 4 4 1 2 1 3 2 3 4 2 3 5 1 3 4 5 9 5 11 11 11 12 11 9
15 18 20 20 20 15 14 11 8 5 4 2 2 3 3 5 5 4 1 2 2 3 4 5 2 3 1 3 2 3 5 3 2 1 2 2 2 3 4 3 3 3 3 3 2 2 7 10 8 9 10 9 10 9
15 17 19 19 18 14 14 10 6 4 4 3 4 6 4 4 4 2 2 2 3 4 3 3 3 2 2 3 1 5 6 1 1 1 2 2 3 5 2 2 2 3 4 2 4 8 8 7 9 9 12 3 4 4
14 17 19 17 16 14 13 10 3 4 4 5 6 6 4 4 3 2 2 3 2 5 4 2 4 3 4 1 3 3 4 3 1 4 3 4 3 3 4 2 3 8 6 4 2 8 5 6 10 12 11 10 8 8
14 17 19 16 14 12 11 9 2 4 4 5 5 5 5 5 2 3 4 4 3 2 3 2 3 4 4 4 1 5 5 2 2 3 2 2 1 6 4 4 8 11 10 13 9 7 10 11 10 12 10 8 8 9
13 16 17 15 12 10 9 8 3 3 5 5 4 4 5 5 4 5 4 2 2 2 2 4 2 3 3 2 1 2 3 1 3 2 3 2 2 3 3 3 10 12 11 12 13 11 10 15 9 13 11 11 14 16
13 16 17 14 12 9 8 7 5 2 5 5 5 3 3 5 8 6 2 2 4 4 3 3 2 3 6 1 2 0 3 3 3 1 2 3 2 3 2 10 5 6 8 10 12 12 12 12 14 15 19 16 16 15
12 15 16 14 11 10 8 7 6 2 4 5 5 4 3 3 3 1 2 2 3 2 3 2 4 5 3 1 1 2 3 1 1 1 2 2 2 3 5 10 12 10 9 11 13 13 15 16 17 17 19 21 18 17
12 15 16 14 12 10 9 7 5 3 2 4 2 4 3 3 3 3 1 2 3 3 2 3 3 4 2 2 3 4 1 0 1 2 2 2 2 3 6 8 8 9 9 9 12 14 15 16 16 18 17 16 17 16
12 15 16 15 14 10 7 5 3 1 3 3 4 1 3 5 3 3 2 2 1 2 4 4 4 5 2 3 2 2 4 2 1 1 2 2 3 4 4 7 6 7 8 7 7 8 10 11 11 12 14 15 17 20
13 15 17 16 12 3 0 2 4 3 3 2 2 2 3 3 4 4 2 3 4 3 2 4 3 3 1 3 3 2 2 4 1 4 2 2 3 2 3 5 6 6 7 6 7 7 9 11 12 13 14 16 16 12
15 18 19 16 8 5 1 4 5 7 2 1 3 3 3 3 2 3 4 5 4 4 4 4 5 3 2 4 3 3 2 1 1 1 1 1 5 0 2 3 5 5 7 7 5 6 8 10 12 13 13 13 15 15
17 22 22 12 8 9 4 9 8 6 3 3 3 4 4 3 3 5 8 7 5 5 7 6 3 4 4 3 3 3 2 3 1 2 3 4 5 3 2 3 5 5 4 7 8 6 6 9 12 13 13 15 13 15
20 21 6 4 6 5 8 12 6 6 3 3 3 3 4 3 5 5 5 5 4 3 5 3 4 3 3 3 2 1 2 1 3 2 5 5 4 4 4 5 6 6 4 3 8 8 6 6 9 11 11 13 10 9
20 7 2 3 5 12 10 1 6 3 3 3 4 6 5 6 6 6 6 6 4 3 3 3 3 2 3 3 3 2 1 2 3 3 4 4 4 4 5 6 6 5 4 2 5 8 6 7 9 9 10 13 13 12
15 1 6 12 17 7 6 3 4 4 3 3 4 5 7 7 8 6 4 6 4 6 6 3 2 3 3 1 2 3 4 6 4 3 3 3 4 5 6 8 5 3 2 2 3 7 5 4 6 8 9 11 12 11
4 8 15 20 8 5 2 4 3 3 5 6 6 6 2 5 6 5 2 4 5 4 2 3 2 1 2 1 3 3 5 3 2 1 2 3 5 6 6 7 6 5 2 4 4 4 5 2 3 6 4 7 8 10
20 17 12 11 8 3 3 4 4 3 5 5 5 5 4 3 3 3 3 3 2 2 2 2 0 2 3 2 4 5 4 5 2 1 1 2 4 5 6 6 5 3 4 3 1 6 8 5 7 5 6 7 10 9
5 1 2 4 6 3 3 3 3 4 4 4 4 4 4 2 3 2 3 2 2 1 3 4 3 3 5 5 5 2 1 7 8 3 4 4 3 2 4 6 6 3 4 6 4 6 3 6 6 7 8 8 8 10
0 2 1 4 3 4 3 2 3 3 4 4 3 5 2 1 3 4 5 2 4 3 4 3 2 4 9 8 7 4 8 9 4 4 5 4 5 4 4 4 3 1 2 3 4 1 2 8 5 4 6 8 7 7
3 3 3 2 2 3 4 3 4 3 3 3 4 4 2 2 4 4 3 4 3 4 4 2 2 2 4 7 10 8 10 4 1 1 3 2 1 3 4 5 5 3 4 5 5 4 4 5 3 2 4 5 4 8
2 2 2 3 3 2 3 2 3 1 3 3 3 2 2 2 3 1 2 2 2 0 0 0 4 6 7 6 3 3 7 6 4 3 3 1 4 2 2 4 6 6 7 7 6 4 6 4 4 1 3 3 4 3
1 2 2 2 4 3 1 3 2 2 2 3 3 3 3 4 3 1 3 3 3 3 3 4 5 5 4 4 1 2 5 6 4 5 2 7 4 3 1 1 3 6 6 6 6 1 4 5 4 1 3 5 4 5
1 1 2 4 3 3 3 2 2 2 2 2 3 1 2 2 1 2 4 3 3 4 4 4 4 3 4 6 4 4 2 3 3 4 2 5 2 3 4 1 6 5 5 2 2 2 1 2 2 8 5 4 5 5
1 4 4 2 2 3 1 2 1 2 2 1 1 1 0 1 1 3 3 5 4 4 4 5 4 4 4 7 7 7 6 5 7 7 4 2 3 0 2 1 7 5 5 7 9 8 3 1 3 2 2 4 3 4
1 4 4 2 3 2 2 1 2 3 2 2 2 1 1 2 2 2 2 5 4 7 6 7 8 10 8 10 9 8 8 7 6 6 5 4 5 5 5 5 5 3 5 3 1 3 2 2 1 1 2 3 4 4
3 2 4 4 3 3 3 2 2 2 2 2 2 2 1 2 2 2 3 4 6 7 8 9 9 10 10 10 10 9 7 6 8 10 13 11 9 10 11 9 8 4 7 7 6 5 5 5 4 3 3 3 4 4
3 3 3 5 4 3 3 3 2 1 1 3 2 2 2 3 4 5 7 9 8 7 6 6 6 6 7 9 10 10 10 8 5 3 2 4 9 6 5 6 6 6 7 9 8 8 7 8 6 7 6 7 5 4
3 4 3 3 3 3 2 1 1 3 1 2 3 3 4 5 5 6 9 8 7 6 5 5 5 6 7 7 9 10 12 12 10 8 6 6 6 6 5 4 6 6 5 4 7 9 6 5 5 3 4 5 5 4
2 4 3 3 2 1 1 3 4 4 4 3 2 2 4 4 6 5 7 7 9 9 7 5 6 6 7 7 6 6 9 9 10 10 9 9 8 7 7 5 4 4 4 4 5 6 5 4 5 4 4 4 5 4
4 5 3 3 2 2 3 3 3 4 4 4 4 4 5 5 5 7 11 11 10 8 7 6 6 7 8 9 10 11 10 8 8 8 7 8 8 7 5 5 5 6 5 5 5 6 4 4 5 4 4 4 5 6
3 4 4 2 3 3 4 3 3 2 3 3 4 5 6 5 4 4 10 11 8 10 10 10 11 10 9 9 10 11 12 13 12 11 9 9 8 7 6 7 6 5 5 5 5 5 5 4 4 4 3 3 4 5
Wind_Direction
347 348 346 346 344 346 346 347 356 7 26 38 68 120 165 159 151 122 115 143 355 8 60 19 30 350 342 9 315 332 260 73 297 270 289 354 295 97 267 208 168 182 195 202 231 243 254 27 337 240 340 316 349 329
345 346 345 345 342 346 347 347 357 18 39 53 107 143 189 183 176 141 131 122 206 254 352 344 328 316 317 314 307 313 359 25 353 292 303 299 313 314 326 148 335 237 239 266 271 223 359 335 283 269 278 289 308 312
342 344 344 345 342 348 347 346 357 29 40 79 126 159 179 177 178 152 199 214 250 264 212 226 96 127 315 336 299 295 50 43 86 261 308 301 327 326 0 38 279 239 340 252 358 298 284 300 294 303 273 281 299 294
338 341 341 341 339 348 347 344 352 46 38 59 140 155 173 183 192 174 264 225 277 297 293 103 150 204 151 46 350 285 310 72 23 271 12 340 333 2 322 287 305 272 272 244 244 279 251 300 346 346 4 41 305 311
332 337 338 339 336 343 348 341 12 105 88 102 135 149 171 196 212 248 262 221 271 309 317 314 293 157 181 149 321 324 301 277 333 79 9 17 331 323 310 305 12 354 1 353 31 6 11 24 3 2 23 24 17 18
330 335 336 334 332 338 345 339 356 144 150 146 160 173 190 209 238 282 215 198 222 269 273 269 100 224 218 233 307 305 335 311 353 0 81 20 15 351 358 18 335 357 34 22 5 14 24 7 14 3 16 23 34 27
329 332 334 331 327 330 338 343 334 182 189 188 193 206 218 232 246 283 355 23 246 232 252 273 210 173 178 266 91 255 257 352 352 54 31 352 358 348 317 14 4 13 37 33 27 6 19 22 4 3 18 24 45 35
327 329 331 330 323 319 321 333 331 235 211 210 216 236 252 268 276 262 231 247 175 262 262 287 297 184 186 254 188 157 270 210 54 39 346 29 341 13 49 2 49 28 48 47 45 41 44 13 19 14 15 27 39 37
328 328 330 327 318 313 304 301 322 301 213 226 227 250 277 226 247 23 249 142 226 288 303 277 311 3 187 243 208 139 291 185 117 313 53 20 338 37 355 6 4 18 33 30 55 35 39 33 15 27 16 19 27 27
327 325 330 325 317 310 294 273 316 310 228 209 187 219 219 140 196 144 116 217 200 184 231 248 330 311 277 175 200 144 270 243 273 9 269 72 9 33 14 17 360 2 8 24 27 32 31 34 28 18 28 15 16 19
326 326 331 330 318 310 282 257 288 313 135 199 224 256 95 158 197 220 260 208 182 253 200 229 236 303 113 290 318 214 162 185 200 128 283 27 338 49 7 10 9 351 346 16 32 39 33 38 38 30 26 34 29 19
322 325 326 325 316 302 242 261 274 198 239 243 320 251 182 216 222 252 230 151 212 279 179 269 338 246 300 288 283 201 231 183 173 147 282 342 68 18 351 2 356 1 359 346 8 13 25 25 20 30 36 28 35 42
325 325 321 315 282 202 177 339 292 229 257 236 226 231 206 199 297 257 321 306 311 349 320 284 291 187 206 247 253 262 255 45 133 194 195 285 49 270 315 337 358 356 1 14 353 2 2 19 24 21 22 32 37 41
328 328 323 301 223 205 258 327 320 213 190 246 234 284 237 208 255 323 330 320 332 300 321 325 282 221 196 222 266 256 42 249 300 52 253 34 51 12 330 319 311 351 354 8 26 20 13 14 21 28 25 18 24 31
331 335 334 110 153 230 289 311 285 173 243 260 248 250 230 296 291 301 313 290 272 290 299 269 231 249 195 237 229 92 209 268 211 266 4 31 5 320 330 326 320 330 341 18 25 17 28 23 25 27 24 29 34 29
334 331 95 24 313 306 307 263 154 201 237 245 239 257 246 268 300 289 306 305 1 303 291 240 270 318 247 308 234 86 56 242 10 352 2 2 35 29 12 350 316 314 321 289 36 18 15 36 30 22 30 22 33 32
339 274 309 309 311 320 148 132 187 221 253 232 238 246 281 298 293 329 321 346 356 301 318 351 293 273 340 329 46 28 13 1 332 356 38 33 345 344 350 350 321 307 291 200 68 41 31 37 31 31 26 19 15 24
302 303 301 296 302 179 199 199 248 249 245 244 263 300 328 297 318 322 30 348 310 336 271 312 342 47 295 64 60 347 289 265 360 360 354 13 329 329 334 338 337 317 261 167 96 77 52 39 11 58 26 1 9 15
306 296 269 253 194 205 216 198 233 265 252 289 279 290 310 339 51 353 333 334 331 288 276 270 321 25 71 181 199 276 320 330 350 148 102 25 347 337 322 323 312 335 162 145 113 56 74 44 22 18 26 9 15 31
295 243 21 144 161 225 235 195 219 271 280 7 288 331 350 12 358 20 35 27 358 345 28 17 39 161 193 194 212 309 113 230 281 302 45 67 7 299 30 344 355 29 161 150 116 322 111 104 74 64 39 27 21 23
11 285 71 131 189 234 283 261 236 273 318 296 2 323 360 85 44 42 53 5 49 16 41 48 159 209 216 232 272 269 188 261 302 1 0 15 21 9 28 42 45 80 173 102 211 210 253 70 76 73 61 32 40 43
241 291 194 183 240 197 258 226 291 329 265 321 311 334 12 39 44 41 328 53 51 60 53 111 192 216 227 265 284 255 231 226 169 210 214 243 6 68 50 14 8 21 357 4 331 335 38 74 54 66 65 69 62 52
286 200 209 208 244 199 261 242 257 228 280 344 314 353 44 43 37 265 88 36 64 128 98 339 326 325 304 319 353 159 187 207 210 204 124 102 112 79 28 25 19 10 358 28 337 295 75 112 124 34 37 48 22 17
317 248 238 226 215 255 208 234 215 263 274 299 327 6 33 19 322 97 53 41 10 360 328 304 307 322 318 230 225 132 193 206 193 140 230 246 169 100 337 34 35 28 348 351 356 258 132 118 68 7 97 65 5 6
281 255 170 275 230 243 236 238 230 230 287 323 316 34 46 324 348 59 22 39 18 41 10 353 320 342 341 3 25 61 144 233 269 288 191 245 250 194 196 64 53 47 324 68 33 30 61 18 348 64 10 50 34 28
159 185 186 220 175 240 273 277 269 331 304 262 76 68 117 345 5 49 26 22 16 2 1 5 348 346 48 31 16 21 33 340 319 298 54 254 239 345 104 287 78 341 29 22 1 349 64 33 86 83 66 98 67 338
250 193 192 219 287 277 265 262 278 255 239 226 159 214 230 332 46 67 49 36 11 30 34 31 34 40 27 21 22 26 22 30 37 42 56 80 88 79 72 63 105 80 324 1 313 344 69 152 69 239 185 74 67 65
259 254 230 159 219 231 271 262 243 235 192 139 192 207 323 22 79 92 65 76 91 92 84 73 61 56 52 46 33 24 35 72 90 100 98 82 85 94 99 83 69 80 78 46 24 36 47 72 68 68 78 78 62 64
233 199 219 241 227 211 231 238 252 114 134 199 231 146 120 74 99 130 125 133 138 133 119 98 83 74 72 58 43 33 25 10 17 57 13 107 123 108 94 91 84 87 67 84 68 61 59 68 64 81 67 69 79 57
218 196 233 233 231 224 158 232 8 109 163 53 100 128 131 126 113 138 145 154 149 130 107 93 70 49 45 51 61 53 46 46 43 51 72 78 88 116 108 93 79 72 67 72 97 100 103 92 98 94 77 68 58 41
179 200 242 247 254 126 87 123 128 149 166 154 161 193 144 137 144 162 170 153 143 142 140 119 87 57 48 43 47 84 79 67 72 74 79 88 89 93 92 87 80 70 65 71 89 95 104 82 90 87 78 57 51 18
200 220 236 243 195 129 179 199 188 198 174 194 181 164 162 181 173 164 172 165 165 156 130 132 114 96 87 87 87 86 85 91 90 94 89 87 86 86 90 88 90 89 95 99 95 96 90 90 85 79 66 35 23 10
228 222 245 238 194 209 184 201 207 211 217 222 206 205 201 198 181 142 174 185 183 160 152 135 128 121 115 109 108 102 96 96 99 96 95 92 96 94 93 90 86 89 92 86 88 94 92 79 73 48 34 17 9 360